Location: Bednik
(45.3500°N, 16.3833°E)
Time: 23:42:45
(UTC+00:00)

Cosmos 2219 Rocket - Pass Details

Date: 08 August 2020
Orbit: 826 x 848 km, 71.0° (Epoch: 23 September)

Event Time Altitude Azimuth Distance (km) Brightness Sun altitude
Rises 21:47:49 0° 340° (NNW) 3,414 6.7 -26.7°
Reaches altitude 10° 21:50:35 10° 351° (N) 2,478 5.6 -26.9°
Maximum altitude 21:55:32 30° 51° (NE) 1,490 3.6 -27.1°
Enters shadow 21:57:04 26° 79° (E) 1,611 3.6 -27.2°
